Wind_Speed
3 4 7 8 9 10 11 12 12 13 14 16 19 19 20 19 18 19 19 18 18 17 17 17 17 17 17 16 15 15 14 13 12 10 10 10 8 5 3 3 3 3 2 2 2 2 3 5 6 8 9 8 5 1 4 6 7 8 8 9 9 9 9 10 10 9 9 9 8 10 10 9 9 8 7 8 9 9 9 10 10 10 10 10 11
3 4 2 4 5 7 8 10 11 12 14 16 17 17 17 16 16 18 20 20 18 17 17 17 17 17 16 15 13 13 11 10 7 4 5 5 6 8 9 7 5 5 3 3 4 5 5 6 7 8 8 9 9 7 4 2 2 3 4 5 6 7 7 7 8 8 8 8 8 9 10 10 10 9 8 8 9 11 11 12 11 11 11 10 11
4 6 5 3 1 5 6 8 8 10 12 13 15 15 13 11 13 15 15 15 15 16 17 17 18 18 15 13 11 10 8 7 6 7 7 6 9 11 9 7 6 6 5 5 6 7 8 8 8 8 8 9 10 10 8 6 4 3 2 1 2 4 5 6 7 8 8 9 10 10 10 10 10 9 9 9 9 11 12 12 11 11 10 10 11
5 7 8 8 5 4 4 6 7 8 10 10 12 10 5 4 6 7 6 7 10 12 13 15 16 15 12 10 10 11 11 11 10 10 9 9 10 10 9 8 7 7 6 7 7 8 9 9 9 10 9 10 11 11 9 8 7 6 5 4 4 3 3 3 5 6 7 8 10 10 10 10 10 10 10 10 10 10 11 13 12 11 11 11 12
5 6 8 8 8 7 5 5 5 6 8 9 8 4 2 3 3 3 3 2 4 4 4 7 9 10 10 12 14 15 14 12 10 9 9 9 10 10 9 8 7 7 7 7 7 8 8 8 9 10 10 11 12 12 11 9 8 8 8 6 6 5 5 5 6 5 5 6 7 7 9 10 10 10 10 11 11 10 11 12 12 12 12 13 14
6 6 7 7 7 7 6 5 4 3 4 6 6 5 6 5 4 4 3 4 6 6 6 7 10 11 12 14 15 15 13 11 10 9 9 9 10 10 9 8 7 7 7 7 6 7 7 8 8 9 9 10 11 11 11 10 9 10 10 9 8 7 7 7 7 6 5 5 6 5 6 7 9 9 10 10 11 11 11 11 11 11 12 14 15
7 7 6 7 7 6 6 5 4 3 2 1 3 7 9 7 7 7 6 6 7 8 9 12 13 13 14 15 15 13 11 9 9 10 9 9 9 9 8 7 7 7 6 6 6 6 6 7 7 8 8 9 9 9 9 9 9 10 10 9 9 9 9 9 9 9 8 7 7 6 6 6 7 7 9 9 10 11 11 12 12 11 12 14 15
7 8 7 7 7 6 6 5 5 4 4 4 5 7 8 8 9 10 9 8 7 7 9 11 14 15 16 16 14 11 9 8 9 9 9 8 8 8 7 6 6 6 6 5 5 5 5 5 6 6 7 7 8 8 8 8 9 9 9 10 9 9 10 10 10 10 10 10 9 9 8 7 7 7 8 8 9 11 12 13 13 13 13 14 15
6 7 8 8 7 7 6 5 5 5 4 4 4 5 7 8 9 10 10 10 9 8 9 10 13 15 15 14 12 10 9 8 8 8 8 7 7 6 6 5 5 5 4 4 3 3 4 4 5 5 6 6 6 7 7 7 8 8 9 9 9 10 10 11 11 11 12 12 11 11 10 10 9 8 7 7 8 9 11 13 14 14 14 15 16
6 7 8 8 8 8 7 6 6 5 5 4 4 4 6 7 8 9 10 11 11 10 10 10 11 12 12 11 10 9 9 8 7 7 6 6 5 5 4 4 4 4 3 3 2 2 3 3 4 5 5 6 6 7 7 8 8 8 9 9 10 10 11 11 12 12 12 13 13 12 12 11 11 10 9 9 8 8 9 11 12 13 15 16 16
9 9 9 8 9 8 7 6 6 5 5 4 3 3 4 6 7 7 8 9 10 10 10 9 9 9 9 9 8 8 8 7 6 5 5 4 4 3 3 3 3 2 2 1 1 2 3 4 4 5 6 6 7 7 8 9 9 10 10 10 11 11 11 12 13 13 13 13 13 13 13 12 12 12 11 10 10 9 8 10 11 12 13 15 16
11 10 10 10 10 9 8 7 5 5 4 3 3 3 3 5 6 7 6 6 8 8 8 8 7 7 7 8 8 7 6 5 5 4 4 3 3 2 2 1 1 1 1 1 2 3 4 5 6 7 7 8 9 9 10 10 11 11 12 12 13 13 13 13 14 14 14 15 14 14 14 14 14 14 12 10 11 11 10 10 11 10 11 13 14
13 11 11 10 10 10 8 6 4 4 4 3 2 2 3 4 5 6 5 5 5 6 6 6 6 6 6 6 6 6 5 4 4 3 3 3 2 2 2 2 3 3 4 4 5 5 6 7 8 9 9 10 11 11 11 12 13 13 14 14 15 15 16 16 16 16 17 17 16 16 17 16 16 16 15 13 11 12 11 11 11 11 11 12 13
11 9 8 6 6 7 7 5 4 2 2 2 1 2 2 3 3 4 3 3 3 4 4 5 5 5 5 5 5 4 4 3 3 3 3 3 3 4 4 5 5 6 6 7 7 7 8 9 9 10 11 12 12 13 14 14 15 16 16 17 17 18 18 19 19 19 19 19 19 19 19 19 18 18 17 16 14 14 14 13 13 12 12 12 13
10 8 5 4 4 4 5 4 3 2 2 1 1 1 1 2 2 2 1 1 1 2 3 3 4 4 4 4 4 3 3 3 3 4 4 5 5 6 7 7 8 8 9 9 9 9 9 10 11 12 12 13 13 14 15 16 16 17 18 19 19 20 21 21 22 22 21 21 21 21 21 21 21 20 19 18 17 17 17 16 16 15 14 14 14
10 9 6 5 5 4 3 3 3 3 2 3 3 3 3 3 2 2 2 2 2 2 2 2 3 3 3 3 3 4 4 5 5 6 6 7 8 8 9 10 10 10 11 11 11 11 12 12 13 13 14 15 15 15 16 16 17 18 19 20 21 22 23 23 24 24 25 25 24 24 23 23 23 23 22 21 20 20 20 19 19 18 17 16 16
11 11 8 7 7 5 4 4 4 3 3 4 5 5 5 5 4 4 5 5 4 4 4 5 4 4 4 5 5 6 7 7 8 8 9 9 10 11 11 12 12 12 13 13 13 14 15 15 15 15 16 16 17 17 17 18 19 20 21 22 23 23 24 25 26 26 26 27 27 27 27 26 26 25 24 24 23 23 23 22 22 20 20 20 19
14 13 11 10 8 6 6 5 5 4 4 5 5 6 6 6 6 6 6 7 7 7 7 7 7 7 7 8 8 9 9 10 10 11 11 12 12 13 13 14 14 14 15 15 16 16 17 18 18 18 19 19 19 20 20 21 22 23 24 25 25 26 26 27 27 28 28 28 28 29 29 29 29 28 28 27 26 26 26 25 25 24 23 22 22
16 16 14 12 9 7 7 6 6 5 5 6 7 7 8 7 7 7 7 8 9 9 10 10 10 10 11 11 11 12 12 12 13 14 14 15 15 16 16 16 17 17 17 18 19 19 20 21 22 22 23 23 24 24 25 25 26 27 28 28 28 28 28 29 29 29 29 30 30 30 30 30 30 30 30 30 30 29 28 27 27 27 26 25 25
18 17 16 13 10 9 8 7 7 7 7 8 8 9 9 9 9 9 9 10 11 11 12 12 13 13 13 13 14 14 15 15 16 16 17 17 18 18 19 19 20 20 20 21 22 22 23 24 25 26 27 27 28 28 29 29 30 30 31 31 31 30 30 30 30 31 31 32 32 32 32 32 32 32 32 32 32 32 32 31 30 30 29 28 28
15 15 17 15 12 10 9 8 8 9 9 10 10 10 10 10 10 10 10 11 12 12 13 14 14 15 15 15 16 17 17 18 18 19 19 20 20 21 21 21 22 22 23 23 24 25 25 27 28 28 29 30 31 32 32 32 32 33 33 33 32 32 31 31 32 32 32 33 33 33 33 33 34 34 34 34 34 34 34 35 34 33 32 31 30
8 11 15 15 13 11 10 10 10 11 12 12 12 12 12 12 11 11 11 12 12 13 14 14 15 16 16 17 17 18 19 19 20 21 21 22 23 23 23 24 24 25 25 26 27 27 28 29 30 31 32 32 33 34 34 34 34 34 34 34 33 33 33 32 32 32 33 33 33 33 34 34 35 35 35 35 35 36 36 36 36 36 36 34 33
6 8 11 12 12 12 11 12 12 13 13 13 14 14 14 13 12 12 12 12 13 14 14 15 15 16 16 17 18 18 19 20 21 22 22 23 24 24 25 26 26 27 27 28 29 30 30 31 32 32 33 34 34 34 35 35 34 34 34 34 33 33 33 33 33 33 33 33 33 33 34 35 35 36 36 37 37 37 38 38 38 38 38 38 37
6 7 9 9 11 12 11 12 12 12 13 13 13 14 14 14 13 12 13 13 13 14 15 15 15 16 16 17 18 19 20 21 21 22 23 24 24 25 26 27 27 28 29 29 30 30 31 32 33 33 34 34 34 35 35 35 34 34 34 33 33 33 33 33 33 33 34 34 34 34 35 36 37 37 38 39 39 40 40 40 40 40 40 40 40
3 5 6 7 9 10 10 10 10 10 11 11 12 13 13 13 13 14 14 14 15 15 15 15 15 16 16 17 18 19 20 21 22 23 23 24 25 26 27 28 28 29 30 30 31 31 32 33 34 34 34 34 34 34 34 34 34 34 33 34 34 34 34 34 34 34 35 36 36 37 37 38 39 39 40 41 41 42 42 42 42 42 42 42 42
2 3 4 5 5 6 6 7 7 7 8 9 10 11 12 12 13 13 14 14 15 15 15 15 15 16 16 17 18 19 20 21 22 23 24 25 27 27 28 29 30 31 31 32 32 32 33 33 33 34 34 34 34 34 34 34 34 34 34 34 34 34 35 35 36 37 37 38 38 39 39 40 41 41 42 42 43 43 43 44 43 43 43 43 43
6 6 5 4 5 5 6 6 6 7 7 8 9 10 11 11 12 13 14 14 15 15 16 16 17 17 18 18 19 20 21 22 23 24 25 26 27 27 28 29 29 30 30 31 32 32 32 33 33 33 33 33 34 34 34 34 34 34 34 35 35 35 36 37 37 38 38 38 39 39 40 41 42 42 43 44 44 44 44 44 44 44 44 44 44
9 8 7 7 7 7 7 7 7 8 8 9 9 10 11 11 12 13 13 14 15 15 16 16 16 17 17 18 19 19 20 21 22 23 23 24 25 26 26 27 28 29 30 30 31 31 32 32 32 32 32 32 33 33 34 34 34 35 35 35 36 36 37 37 37 37 37 38 38 38 39 40 41 42 43 44 44 45 45 45 45 45 45 45 44
10 10 9 9 8 8 8 7 7 8 8 8 9 10 10 11 11 12 12 13 14 14 15 15 15 15 15 16 17 18 19 20 21 22 23 24 25 25 26 27 27 28 29 30 30 31 31 32 32 32 32 32 32 33 34 34 35 36 37 37 36 36 37 37 37 37 37 37 37 37 37 38 39 40 41 43 44 44 45 45 45 45 45 45 44
8 8 8 9 9 8 8 7 7 8 8 9 10 10 11 11 11 12 12 13 14 15 15 16 16 15 15 16 17 18 19 20 21 23 23 24 25 25 26 26 27 28 28 29 30 30 31 31 31 31 31 32 32 33 34 35 36 37 38 38 37 37 37 37 38 37 37 37 37 38 38 38 38 39 40 40 42 43 43 43 44 44 44 45 44
3 5 6 7 8 8 8 8 9 10 10 11 11 12 12 12 12 12 13 13 14 15 15 16 16 16 16 16 17 18 19 20 21 22 23 24 24 25 25 26 27 27 28 29 29 30 30 30 30 31 31 32 33 34 35 36 37 37 38 38 38 37 37 38 38 39 38 39 39 39 39 40 40 40 41 41 41 42 42 43 43 44 44 44 44
2 2 4 5 7 8 9 9 10 10 11 12 12 12 13 13 13 13 13 14 15 15 16 17 17 16 16 16 18 19 20 20 22 23 24 24 25 25 26 26 27 28 28 29 29 29 30 30 31 32 33 34 35 36 36 37 37 37 37 38 38 38 38 39 40 40 40 40 40 40 41 41 41 41 42 42 42 42 43 43 44 44 44 44 44
5 3 3 5 6 7 8 9 11 11 11 11 11 12 13 13 14 14 14 15 15 16 17 18 18 17 17 18 19 20 21 22 23 24 24 25 26 26 27 27 27 28 28 29 29 30 30 31 32 33 35 36 36 37 37 37 38 38 38 38 39 39 39 40 40 41 41 41 41 41 41 42 42 42 42 43 43 43 43 44 44 44 44 44 45
6 5 5 5 7 7 7 8 10 11 11 11 12 13 14 15 16 16 15 15 14 15 17 18 19 19 19 20 20 21 22 24 25 25 25 26 26 27 27 28 28 28 29 29 30 31 32 33 34 36 36 37 38 38 38 39 39 39 39 40 40 40 40 40 41 41 42 42 42 42 42 43 43 44 44 44 45 45 45 45 45 45 45 45 45
8 8 7 6 6 5 4 7 10 11 12 12 14 15 15 16 16 15 14 14 13 15 17 19 20 21 21 22 21 22 24 25 26 26 26 27 27 28 28 28 28 29 30 30 31 32 34 35 36 37 38 38 39 39 40 40 40 40 41 41 42 42 42 42 42 42 44 44 44 44 44 45 45 45 45 46 46 47 46 46 46 46 46 46 45
9 8 6 6 6 6 6 8 11 12 14 15 17 18 18 17 15 14 13 13 15 16 19 21 21 22 23 23 23 24 25 26 26 27 27 28 28 28 29 29 29 30 30 31 32 34 36 37 38 39 39 39 40 40 41 41 41 41 42 42 43 44 44 44 44 45 45 46 46 46 46 46 46 46 46 47 47 47 47 46 46 46 47 46 46
6 6 6 6 8 8 8 11 12 14 16 17 17 17 17 15 15 15 15 16 18 20 22 23 24 24 24 24 24 25 26 26 27 27 27 28 28 29 29 30 30 31 32 33 35 37 38 39 40 41 41 41 41 42 42 43 43 43 43 44 45 46 46 46 46 46 46 46 46 46 46 46 46 47 47 47 47 46 46 46 46 47 47 47 47
5 7 8 8 10 11 12 14 15 16 16 16 16 16 17 19 21 21 20 19 20 22 23 24 24 25 25 25 25 26 26 26 27 27 27 28 28 29 30 30 31 32 34 36 38 39 40 41 41 41 41 42 42 43 44 44 44 45 45 46 47 47 47 47 47 47 47 47 47 47 48 48 48 47 47 47 46 46 47 47 47 47 47 47 47
8 10 9 9 11 12 11 12 14 15 15 16 17 18 20 22 24 24 23 22 23 23 24 24 24 24 25 25 25 26 26 26 27 27 28 28 29 30 31 31 33 34 36 38 40 40 40 41 41 41 42 42 43 44 45 45 46 46 47 47 48 49 49 48 48 48 48 48 48 49 50 50 49 48 48 48 48 48 48 48 48 48 48 48 48
12 12 9 10 13 14 12 13 14 15 16 18 20 21 22 23 24 24 25 25 25 25 25 24 24 24 25 25 25 26 26 27 27 28 29 29 30 31 32 33 35 37 39 39 40 40 40 41 41 42 42 43 44 45 46 46 47 47 48 48 49 49 49 49 48 48 48 48 48 49 49 49 49 48 48 47 47 47 47 47 47 48 48 49 49
12 10 9 12 15 17 18 18 18 18 19 20 22 23 23 24 25 26 26 25 25 25 25 25 25 25 25 25 26 27 28 28 29 29 30 30 31 32 34 36 38 39 39 39 39 40 40 41 42 43 43 44 45 45 46 47 47 47 47 47 47 47 48 48 48 48 48 48 47 47 48 48 47 46 46 45 45 44 44 44 44 44 45 46 48
11 10 10 13 16 18 19 19 18 18 19 20 22 23 23 24 24 25 26 25 25 26 26 26 26 26 26 27 27 29 29 30 30 30 31 32 33 35 37 38 38 38 39 39 39 40 40 42 42 43 44 44 45 45 46 47 47 46 46 46 46 47 48 48 48 47 47 46 45 45 45 45 44 43 43 43 42 42 42 42 42 42 43 43 44
11 10 11 14 17 17 17 18 17 18 19 21 22 22 23 23 23 24 25 26 26 26 27 27 27 27 28 28 29 30 30 31 31 32 33 34 36 38 39 39 38 38 38 39 40 40 40 41 42 43 44 45 45 46 45 46 46 46 46 46 47 47 47 47 47 46 45 45 44 44 44 44 43 42 41 41 41 41 41 41 42 42 43 43 43
11 11 13 16 17 17 17 19 20 21 22 22 22 22 23 24 24 25 25 26 26 27 27 28 29 29 30 30 31 31 31 31 32 33 35 37 38 39 38 38 38 38 38 39 40 40 40 41 41 43 43 44 45 45 46 46 47 47 47 47 47 47 46 46 46 45 45 44 44 43 43 43 42 42 41 41 41 41 40 40 41 41 42 42 41
14 15 16 18 20 19 19 21 22 22 22 22 22 23 24 24 25 26 26 26 27 27 27 28 29 29 30 31 31 32 32 33 34 36 37 38 38 37 37 37 37 37 38 39 39 40 40 41 42 42 42 43 43 45 46 47 47 48 48 48 47 47 46 45 44 44 44 44 44 44 44 43 42 42 41 41 41 41 41 41 40 40 40 40 40
16 18 19 21 22 23 22 22 22 22 22 22 23 23 23 24 25 26 27 27 27 27 28 28 29 30 30 31 31 32 33 35 37 38 38 37 36 36 36 36 37 38 38 39 39 40 41 41 41 41 42 42 43 44 46 47 47 48 48 48 48 46 45 44 43 42 43 43 42 42 42 42 41 42 42 41 40 40 41 41 40 38 38 38 38
19 20 21 22 22 22 22 22 22 22 22 22 22 22 23 24 25 26 27 27 28 28 29 29 29 30 30 31 32 33 35 37 38 37 37 36 36 36 36 37 38 38 39 39 40 41 41 41 41 41 41 42 42 43 45 46 47 48 49 48 47 45 44 42 41 40 40 38 37 37 38 38 39 39 40 41 40 40 39 38 36 36 35 35 36
21 21 21 21 21 21 22 21 21 21 22 22 23 24 25 25 26 26 27 27 28 29 29 29 30 30 30 31 33 34 35 36 36 35 34 34 35 36 37 37 38 38 39 40 41 41 41 41 41 42 42 42 42 42 45 47 48 49 48 46 44 41 40 38 37 37 36 34 33 34 35 36 36 36 36 37 37 36 35 33 32 32 33 33 34
20 20 19 19 19 20 20 20 21 21 22 23 24 25 25 26 26 27 27 27 28 29 30 30 31 30 32 33 34 34 34 33 33 33 33 34 35 36 36 37 38 39 40 41 41 41 42 42 43 43 43 43 43 45 47 49 49 48 44 41 39 37 35 34 33 33 32 32 32 33 33 34 34 33 33 32 32 31 29 29 29 30 30 30 31
18 18 18 18 19 19 20 21 22 23 24 24 25 25 26 26 26 27 27 28 29 30 31 31 31 32 33 34 34 33 32 31 31 32 33 35 35 36 36 37 38 39 40 40 41 41 42 43 43 43 43 45 46 48 49 50 48 42 38 36 35 33 32 31 31 30 30 30 31 30 30 31 30 29 28 28 28 27 27 27 28 28 29 29 29
18 18 18 19 19 21 22 23 24 25 25 25 25 25 26 26 27 27 28 29 30 31 31 32 32 33 33 33 32 31 30 31 31 33 34 34 35 35 36 38 39 39 39 40 40 41 42 42 42 42 43 45 48 51 51 48 42 37 33 32 32 31 31 32 32 30 29 29 29 27 26 25 25 24 24 24 24 24 24 25 25 26 27 27 27
Wind_Direction
319 297 268 250 237 234 233 228 227 232 236 240 238 240 244 237 233 240 243 244 245 247 253 257 257 254 253 255 255 255 256 265 273 266 248 234 228 228 185 143 136 127 121 93 68 32 11 13 14 14 21 27 24 5 218 224 246 260 263 267 274 275 271 265 261 264 272 276 273 272 275 274 273 275 267 254 249 247 240 235 235 232 231 234 236
29 19 322 260 231 220 228 229 224 226 231 238 239 240 248 241 236 244 247 247 249 250 253 253 253 252 251 253 251 248 248 246 242 214 193 180 157 140 125 121 118 112 101 73 61 51 41 36 36 34 38 48 54 64 92 141 226 255 257 265 274 276 273 267 266 274 279 278 275 272 273 273 272 273 269 263 256 251 248 244 239 237 238 242 245
59 60 63 67 193 201 211 223 223 226 230 241 246 246 251 242 234 244 250 252 252 252 254 253 251 250 248 246 237 224 203 182 163 143 145 141 128 123 120 117 111 101 87 72 65 61 54 51 51 48 50 61 66 69 75 82 83 79 78 332 303 290 278 274 278 286 285 278 274 269 267 266 267 268 263 263 261 256 256 256 251 248 248 250 251
74 74 78 82 92 133 172 195 203 215 223 235 248 250 247 207 212 227 236 249 250 250 257 256 249 242 234 217 190 165 146 137 132 132 138 134 122 118 116 112 106 99 89 80 73 70 64 58 58 58 56 62 67 68 69 73 78 78 80 76 49 21 348 326 323 322 307 290 279 272 272 271 269 269 269 268 265 262 263 262 257 254 252 249 247
91 82 85 90 96 106 125 147 168 186 192 200 217 219 98 118 164 174 163 182 197 205 241 239 220 202 185 167 151 141 135 134 136 142 146 137 126 121 117 112 107 102 92 83 77 75 73 67 63 61 59 60 64 66 66 67 68 66 65 64 58 46 33 15 7 2 340 321 307 287 279 276 271 271 273 272 269 265 264 263 262 261 259 256 253
113 95 91 95 97 100 105 108 118 145 163 177 173 118 95 107 120 118 109 113 127 115 96 129 154 157 151 144 139 137 136 138 142 145 141 131 123 119 117 115 111 104 95 86 79 73 72 70 66 62 58 58 60 62 64 62 59 58 57 54 50 46 38 26 16 12 2 354 345 330 308 291 278 273 270 265 264 263 260 262 265 263 260 258 256
129 115 106 98 94 91 87 88 84 66 63 94 95 85 85 90 92 95 97 100 112 108 104 122 135 138 140 138 136 135 136 141 141 137 132 127 121 120 119 118 114 106 96 86 74 66 64 64 63 61 56 54 55 56 57 56 51 49 51 48 41 36 32 24 17 13 11 13 7 357 346 325 308 299 291 276 268 265 262 263 262 257 256 258 259
141 125 117 107 97 92 85 81 78 65 54 46 51 67 76 83 86 91 98 100 103 112 120 131 134 133 133 132 130 134 140 147 145 139 136 132 124 122 121 117 114 105 95 84 72 62 54 53 53 52 49 46 46 47 45 44 42 38 38 37 32 28 24 16 12 7 5 11 12 6 358 345 336 327 314 300 288 281 273 268 266 263 260 261 264
158 134 125 122 112 103 95 86 81 71 64 60 60 72 82 90 94 97 104 106 106 115 119 126 133 130 126 128 132 141 147 151 152 145 138 130 123 120 119 115 111 106 99 90 77 56 39 36 35 35 36 33 30 33 32 30 29 25 22 22 19 17 12 5 4 0 357 2 4 3 2 355 346 339 333 325 313 302 288 279 275 272 269 266 266
183 159 143 137 127 117 110 100 90 77 67 62 61 73 89 98 104 108 111 111 112 118 117 116 125 125 123 131 140 147 151 155 153 141 130 124 122 122 121 121 119 113 107 93 73 41 18 9 10 13 13 14 11 11 11 11 11 8 7 6 4 4 0 354 353 352 350 352 354 354 353 350 345 342 344 342 332 320 307 297 289 283 278 273 268
197 174 158 151 139 128 121 113 104 93 78 64 57 60 80 97 106 111 112 112 112 116 118 118 123 126 129 138 149 157 160 157 148 137 136 136 136 141 140 142 139 125 111 85 13 340 337 338 343 348 349 351 352 353 354 355 354 351 350 350 349 350 347 343 342 342 341 341 342 342 339 338 338 338 341 343 339 334 325 312 304 298 290 282 276
201 183 175 170 158 146 135 124 119 115 100 76 59 51 65 83 92 95 100 106 109 115 122 125 131 136 142 152 162 168 163 154 148 147 155 158 164 176 181 196 204 229 277 293 307 310 316 322 327 330 332 334 336 338 340 340 340 339 338 338 337 336 335 333 332 332 331 330 330 330 328 328 329 331 332 335 336 334 329 320 310 305 297 289 285
203 186 183 183 168 151 140 133 132 128 118 96 53 32 43 60 71 79 85 93 102 112 119 127 138 146 157 164 167 169 163 157 162 169 181 196 214 231 247 269 282 290 293 298 302 306 311 315 319 321 322 324 326 328 329 330 330 329 329 329 327 327 326 325 324 323 322 322 322 321 321 321 321 322 323 325 327 324 320 318 313 307 299 293 291
207 193 184 184 171 144 134 141 149 152 139 117 49 1 11 24 44 57 65 80 98 115 126 138 153 161 167 170 171 172 170 174 185 198 218 237 255 267 274 279 283 288 290 293 297 302 307 310 313 314 314 316 319 321 322 323 323 323 323 322 321 321 320 318 317 316 315 315 315 314 314 314 314 314 315 317 318 313 309 309 307 304 300 297 295
206 209 199 187 187 156 143 159 171 190 213 229 251 274 310 329 359 21 17 38 110 134 145 158 168 175 178 178 185 190 198 212 221 233 246 258 268 273 278 281 284 286 289 292 296 298 301 302 304 304 305 308 310 313 315 317 317 318 318 318 317 316 315 313 311 310 309 309 308 308 308 308 308 309 310 310 309 305 303 303 301 300 298 296 294
203 209 211 203 206 193 174 190 205 219 244 262 263 268 274 278 290 292 290 286 275 257 231 215 207 207 208 210 220 228 237 245 250 257 263 269 275 279 283 285 288 289 290 292 293 293 294 294 295 297 299 301 303 305 307 309 310 311 313 313 313 312 310 308 306 305 305 305 304 304 303 302 302 304 304 304 303 300 298 297 296 296 295 293 291
208 208 207 207 210 206 202 214 223 232 252 268 272 277 276 275 280 281 283 284 279 275 268 260 253 249 248 248 249 252 256 262 266 269 274 277 279 281 282 284 286 287 287 288 289 290 290 290 290 291 292 293 295 297 298 300 303 304 306 308 308 308 307 304 302 301 300 300 300 300 300 299 299 299 298 297 297 296 296 295 294 293 292 290 288
206 207 208 210 208 204 210 220 230 241 255 268 276 277 275 274 275 278 281 282 280 277 275 273 270 267 266 265 265 267 269 271 274 276 277 278 279 280 281 283 284 284 285 285 285 285 285 285 285 285 286 287 289 291 293 296 298 300 301 303 304 305 304 302 299 298 297 296 295 296 296 296 296 296 295 294 293 292 292 292 292 291 289 287 286
199 202 206 208 204 204 214 220 232 248 259 269 274 274 274 274 273 276 279 280 281 279 276 275 273 272 272 272 274 275 276 277 278 279 280 281 282 283 283 284 283 283 283 282 282 282 282 283 284 286 287 288 290 292 293 295 296 297 298 298 300 301 300 299 297 296 295 294 293 293 292 292 292 292 292 292 291 290 289 289 288 287 287 286 285
194 200 204 206 202 204 214 221 232 244 253 262 268 273 276 277 278 279 281 282 282 281 279 277 277 276 276 277 278 279 279 280 280 280 280 281 281 282 282 282 281 281 282 282 283 284 285 286 287 288 289 289 290 290 291 292 293 293 294 294 296 296 297 296 295 294 293 292 291 291 290 290 289 288 288 288 289 289 289 288 286 285 285 285 284
194 200 204 207 204 204 214 224 233 243 251 257 260 267 273 275 278 278 278 279 278 278 277 276 276 275 275 275 276 276 277 277 277 277 277 277 278 278 279 279 280 281 282 283 284 284 285 285 285 286 287 287 288 288 289 290 290 290 290 291 292 293 294 293 293 292 291 290 289 289 288 287 287 286 286 286 286 286 286 287 286 286 284 283 282
199 206 212 212 207 207 219 228 235 242 248 252 256 261 266 270 274 275 276 276 275 276 275 274 274 274 274 274 274 275 276 276 276 276 276 277 277 277 278 279 280 281 282 282 283 283 283 283 284 284 285 286 287 287 288 288 288 288 289 289 291 292 292 292 291 290 289 288 287 286 286 285 284 284 284 284 283 283 283 283 283 284 283 282 281
218 224 227 224 216 214 224 232 238 242 246 249 252 255 260 264 268 272 276 278 279 279 278 277 277 276 276 277 276 277 277 277 278 278 279 279 280 280 281 282 283 283 284 284 284 284 284 284 285 285 286 286 286 286 286 287 287 288 289 290 291 291 291 291 290 288 287 286 285 284 283 282 282 281 281 281 280 280 279 279 279 279 280 280 280
236 242 241 237 228 224 229 236 239 242 243 246 247 249 253 256 260 264 268 272 273 274 274 274 275 276 277 278 278 280 280 281 282 283 283 284 285 285 285 285 285 285 285 285 285 285 285 285 285 285 285 286 286 287 288 288 289 290 291 291 291 291 290 289 288 286 285 284 283 282 281 279 279 279 278 278 277 277 276 276 276 276 276 276 276
232 244 239 236 230 227 232 237 239 241 242 244 245 246 248 249 253 257 261 265 268 269 272 273 274 277 279 281 282 283 285 286 286 287 288 288 288 288 287 286 286 285 285 285 285 285 285 285 285 286 286 287 288 289 290 291 292 292 292 292 291 290 289 287 286 285 284 283 282 281 279 278 277 276 276 275 275 275 275 274 274 274 274 274 273
173 203 214 222 224 225 230 233 238 242 242 244 246 246 248 249 252 257 260 264 267 268 271 274 276 279 281 282 284 284 286 287 287 288 288 288 288 287 287 286 286 286 286 286 286 287 287 287 288 289 290 291 291 292 292 292 292 292 291 291 290 288 287 286 285 284 283 282 281 280 279 278 276 275 274 274 273 273 273 273 273 273 272 272 272
168 177 187 203 212 214 222 230 237 243 245 249 251 251 255 257 258 262 265 267 270 273 274 276 277 279 280 282 283 284 285 286 286 287 287 286 286 286 286 286 287 287 288 289 289 289 290 290 291 291 292 293 293 293 292 292 291 290 289 289 287 286 285 284 283 283 282 281 280 279 278 277 276 274 273 273 273 273 273 272 272 272 271 271 271
178 181 184 192 207 212 219 227 233 242 249 252 256 259 261 263 264 266 269 270 272 274 275 276 278 280 282 283 284 286 287 288 289 288 288 288 288 288 289 290 291 291 291 292 292 292 292 293 293 293 292 291 291 291 290 290 290 288 287 286 286 285 285 284 284 283 283 282 281 280 278 276 275 274 274 273 273 273 273 272 272 272 271 271 271
191 193 189 191 204 210 213 223 233 244 252 255 261 266 265 267 269 270 272 274 276 278 279 281 283 285 289 290 291 293 294 295 295 293 293 293 293 293 294 294 294 293 293 293 293 293 293 292 292 292 290 289 289 288 288 288 288 288 287 287 287 287 287 287 286 285 284 284 283 281 280 278 277 276 275 274 274 274 273 273 273 273 272 271 270
199 199 195 198 208 216 222 234 244 248 255 259 261 264 265 268 270 272 276 278 280 283 285 287 290 292 295 296 296 297 297 297 297 295 295 296 296 296 296 295 294 293 292 292 292 292 291 290 290 289 289 288 288 288 288 289 289 289 289 289 289 288 288 287 286 286 284 283 282 281 280 278 277 276 275 274 274 274 273 273 273 273 272 271 271
205 201 203 211 219 232 238 243 250 254 257 259 259 262 266 268 271 273 276 279 282 286 289 292 296 300 302 302 299 299 299 299 298 298 299 300 299 298 297 295 294 293 293 292 292 291 291 290 290 290 290 291 291 291 292 291 291 291 291 290 290 289 288 287 286 285 283 282 281 280 279 277 276 275 274 273 273 272 272 272 272 272 272 272 271
296 236 234 244 240 245 248 249 253 254 255 260 262 266 269 271 275 278 280 284 288 292 295 298 302 306 308 307 305 304 303 302 302 302 302 302 301 299 297 296 295 295 295 294 293 292 292 292 293 294 294 295 295 294 294 293 292 291 290 290 289 288 287 286 285 284 283 282 281 280 279 278 277 276 275 274 273 272 272 272 271 271 271 271 271
319 289 275 273 254 247 248 252 254 254 258 264 266 270 275 279 282 284 286 290 294 298 301 304 308 312 312 311 309 308 307 307 306 306 305 304 302 300 299 298 298 297 296 295 294 293 294 295 296 297 297 297 296 295 294 293 292 291 290 289 288 288 287 286 286 285 284 283 282 281 280 279 278 277 276 275 274 273 272 272 271 271 271 271 270
293 276 277 272 253 245 243 250 257 258 262 270 276 280 283 284 285 287 289 293 298 303 307 311 315 316 316 314 312 309 310 311 310 309 307 305 303 301 301 300 299 298 296 295 295 296 297 298 298 299 298 298 297 295 294 293 293 292 292 291 290 289 288 287 287 286 285 284 283 282 281 280 279 278 277 275 274 273 272 271 271 270 270 269 269
266 264 271 268 266 275 282 281 281 277 277 281 283 281 278 277 279 282 287 294 301 306 312 318 320 319 317 317 314 313 312 311 310 309 307 305 304 303 302 301 299 297 296 296 297 298 299 300 300 299 299 298 297 295 295 295 295 295 294 293 292 291 290 289 288 286 285 285 284 283 282 280 279 277 276 275 274 273 272 271 270 269 268 267 267
258 265 273 280 294 313 322 316 307 293 282 276 272 272 270 270 273 276 285 299 306 309 315 320 321 319 319 320 318 315 313 312 310 309 307 305 304 303 301 299 298 297 298 298 300 301 301 301 301 300 299 298 297 297 297 296 296 296 295 294 293 292 291 291 290 288 287 286 285 284 282 281 279 277 276 275 274 274 273 272 271 269 268 267 266
265 276 283 297 305 301 302 311 308 292 281 276 276 280 283 286 294 297 303 313 315 315 319 322 321 320 321 321 319 316 314 312 310 308 306 304 303 301 300 299 299 300 301 301 302 303 303 302 301 301 300 300 299 299 298 298 298 297 296 295 294 294 293 292 291 290 289 287 286 285 283 281 280 278 277 276 276 275 274 272 270 269 268 267 266
290 284 290 303 303 289 281 283 284 287 295 300 303 306 304 307 312 312 313 320 322 320 323 323 322 322 322 320 319 317 314 312 309 306 304 303 302 301 301 301 302 302 303 303 304 304 303 302 302 301 301 301 301 301 300 300 300 300 299 298 297 296 295 294 292 291 290 288 287 285 284 282 281 280 279 278 276 275 273 272 271 269 268 267 266
284 285 291 295 291 283 275 273 277 291 305 310 314 317 314 313 315 314 316 322 326 325 326 326 325 324 322 320 319 316 312 308 306 305 304 304 303 303 303 303 304 304 305 305 304 304 304 303 303 303 303 303 303 302 302 302 302 301 300 299 298 297 296 294 292 291 290 288 286 285 283 282 281 280 279 277 276 274 273 272 271 270 269 267 266
271 276 283 288 289 289 292 295 298 305 310 312 317 320 318 317 318 318 319 323 327 328 327 327 325 323 322 320 317 312 308 306 306 306 306 306 305 305 305 306 306 306 306 305 305 305 305 305 305 305 305 305 304 304 304 303 302 301 300 299 298 297 295 294 292 291 289 287 286 285 283 282 281 280 279 277 276 274 273 272 271 270 268 267 265
270 279 294 302 300 300 304 308 312 318 319 318 319 320 320 320 320 320 322 324 326 326 325 324 323 321 319 316 312 309 308 309 309 309 308 308 307 308 308 308 308 307 306 306 306 306 306 306 306 306 306 306 305 304 304 303 302 301 299 298 297 296 295 293 292 291 290 288 287 286 284 283 282 281 280 278 276 275 274 273 272 271 269 268 266
286 301 311 310 308 309 310 307 308 316 320 319 319 319 321 322 320 320 322 323 323 322 321 321 320 318 316 314 312 311 311 311 310 310 310 310 309 309 309 308 308 307 307 308 308 308 308 308 307 307 306 306 305 304 303 302 301 300 299 298 297 296 295 294 293 292 291 290 288 287 286 285 284 283 281 279 277 276 275 274 273 272 271 270 268
288 299 304 304 304 306 308 306 308 317 321 320 320 320 319 320 319 320 322 321 320 320 319 319 318 316 315 314 312 312 311 311 311 311 310 310 309 309 309 309 309 310 309 309 309 309 309 309 308 308 307 306 305 304 303 302 301 301 300 299 298 297 296 296 294 293 291 290 289 288 287 286 285 283 281 279 278 277 276 276 275 274 272 271 270
286 289 293 296 296 299 308 316 321 325 324 321 321 320 319 320 321 321 321 319 318 318 317 317 317 315 314 313 312 312 312 311 311 310 310 310 310 310 311 311 311 311 310 310 310 310 309 309 308 308 307 307 306 305 303 302 302 302 301 300 300 299 298 296 294 292 291 290 290 289 287 285 283 282 280 279 278 277 277 277 277 276 274 272 270
292 293 296 299 304 312 320 324 324 324 322 320 320 320 320 321 320 319 318 317 316 315 315 314 313 312 312 312 312 312 311 310 310 310 310 310 310 310 311 310 310 310 310 310 310 310 310 309 309 308 307 306 305 304 304 304 304 304 304 303 303 301 299 296 294 292 291 290 290 289 287 285 283 281 278 276 275 275 275 277 277 277 274 272 271
299 305 308 312 317 323 325 324 322 321 319 318 318 318 318 318 317 315 314 314 313 312 311 310 310 311 311 311 311 310 309 309 310 310 310 311 310 311 311 311 311 311 311 311 311 311 311 310 309 309 307 307 306 306 306 306 306 306 306 306 305 303 300 298 295 292 291 290 290 289 287 285 283 280 278 276 274 273 273 275 276 275 273 271 270
311 314 316 318 320 321 320 319 319 317 316 316 315 315 314 313 312 310 310 310 309 309 309 310 310 311 311 310 309 309 309 310 310 310 311 311 312 312 312 313 313 313 313 312 312 312 311 311 310 309 308 308 308 308 308 308 308 308 308 307 306 304 301 299 297 295 294 293 292 291 289 287 285 282 280 278 276 274 274 274 274 272 270 269 268
316 315 315 316 317 315 314 314 314 312 312 313 312 311 310 309 308 307 306 306 307 308 309 309 309 310 308 307 307 308 309 309 310 310 311 312 313 313 314 314 314 314 313 313 313 313 313 313 312 311 310 310 310 311 311 311 311 311 309 307 306 304 303 302 300 298 298 297 295 293 291 289 288 285 283 281 279 278 276 274 271 269 268 268 268
314 314 314 313 312 310 308 308 308 308 309 309 308 308 307 306 306 305 305 307 308 308 308 308 308 307 306 306 307 308 309 309 310 311 313 313 314 315 315 316 315 315 315 315 315 315 315 315 315 314 314 314 314 314 314 314 313 312 310 308 307 307 306 305 304 303 303 301 298 295 293 290 288 287 286 284 282 280 277 273 271 270 270 270 268
311 312 310 308 306 304 303 304 304 306 306 306 306 306 305 305 305 306 307 308 307 307 306 306 305 305 305 306 308 309 310 311 312 314 315 316 317 317 317 317 317 316 317 317 317 317 316 316 317 317 317 317 317 317 316 316 315 314 312 311 311 310 311 311 311 311 310 307 303 299 296 292 290 289 288 286 284 281 279 277 276 276 275 274 271
307 305 303 302 302 301 302 303 303 304 305 305 305 306 306 306 306 306 307 307 305 305 305 303 303 305 306 308 310 311 312 314 315 316 317 318 318 319 318 318 318 318 317 317 317 317 317 318 318 318 318 318 317 317 317 316 315 315 315 314 313 314 317 318 318 318 317 313 309 306 301 297 295 294 291 288 286 285 283 282 281 280 279 278 277
Height
5883 5882 5882 5882 5882 5883 5883 5885 5885 5885 5884 5883 5882 5883 5884 5888 5891 5891 5892 5893 5894 5895 5895 5895 5895 5895 5896 5896 5897 5897 5898 5899 5898 5897 5897 5898 5898 5898 5898 5899 5900 5900 5901 5902 5902 5902 5903 5902 5901 5900 5899 5898 5897 5897 5898 5899 5900 5900 5901 5901 5901 5901 5901 5902 5903 5904 5904 5904 5904 5904 5904 5905 5906 5905 5905 5905 5905 5906 5906 5906 5907 5907 5907 5908 5909
5883 5882 5881 5881 5881 5881 5882 5883 5884 5884 5883 5882 5881 5882 5884 5888 5890 5889 5889 5891 5892 5893 5892 5892 5892 5893 5894 5894 5895 5896 5897 5897 5897 5896 5898 5898 5897 5896 5898 5899 5900 5901 5901 5901 5902 5902 5902 5902 5901 5901 5900 5899 5898 5898 5898 5899 5899 5900 5900 5901 5901 5901 5901 5901 5902 5903 5904 5903 5904 5904 5903 5903 5905 5905 5905 5905 5905 5906 5906 5906 5906 5907 5908 5909 5910
5882 5882 5881 5881 5880 5881 5882 5882 5883 5883 5882 5881 5881 5882 5884 5887 5888 5887 5888 5889 5890 5890 5890 5889 5890 5891 5892 5893 5894 5895 5895 5896 5896 5896 5898 5899 5897 5896 5898 5899 5900 5901 5901 5901 5902 5902 5902 5902 5902 5902 5901 5900 5899 5899 5899 5899 5900 5900 5900 5901 5900 5900 5901 5901 5902 5903 5903 5902 5903 5904 5904 5904 5904 5904 5904 5904 5904 5905 5905 5906 5906 5907 5908 5909 5910
5882 5883 5883 5882 5882 5882 5882 5883 5883 5883 5884 5883 5882 5883 5884 5886 5886 5886 5887 5888 5887 5888 5888 5887 5888 5890 5891 5892 5893 5894 5894 5895 5896 5897 5899 5899 5898 5897 5899 5900 5901 5901 5901 5902 5902 5902 5902 5903 5903 5903 5903 5901 5900 5900 5900 5901 5901 5901 5900 5900 5900 5900 5900 5901 5901 5901 5901 5901 5902 5903 5903 5903 5903 5902 5902 5904 5904 5904 5904 5904 5905 5905 5906 5907 5907
5882 5883 5883 5884 5884 5884 5884 5884 5884 5885 5886 5887 5886 5885 5885 5886 5887 5887 5888 5887 5887 5887 5887 5887 5888 5890 5891 5892 5893 5894 5895 5896 5897 5898 5899 5899 5898 5898 5899 5900 5901 5901 5901 5902 5903 5903 5903 5904 5904 5904 5904 5903 5902 5901 5901 5901 5901 5901 5900 5900 5900 5900 5900 5901 5901 5901 5901 5900 5900 5901 5901 5902 5902 5901 5901 5903 5904 5904 5903 5903 5904 5905 5906 5906 5906
5882 5882 5883 5884 5884 5884 5884 5885 5884 5885 5886 5887 5888 5887 5886 5886 5887 5888 5888 5887 5887 5887 5888 5888 5889 5891 5892 5893 5894 5895 5896 5897 5898 5899 5899 5899 5898 5899 5900 5901 5901 5902 5902 5903 5903 5904 5904 5904 5904 5904 5905 5904 5903 5903 5902 5902 5902 5901 5901 5900 5900 5900 5900 5900 5900 5900 5900 5900 5900 5900 5900 5901 5901 5901 5902 5903 5904 5903 5902 5902 5903 5905 5905 5905 5905
5881 5881 5882 5883 5884 5884 5884 5884 5884 5883 5883 5884 5885 5884 5884 5885 5887 5888 5888 5887 5886 5886 5887 5888 5890 5891 5892 5893 5894 5895 5896 5897 5899 5899 5899 5899 5899 5899 5900 5901 5902 5902 5902 5903 5903 5904 5904 5904 5905 5905 5905 5904 5904 5904 5903 5903 5902 5902 5902 5901 5901 5900 5900 5900 5900 5899 5900 5900 5900 5900 5899 5899 5899 5899 5900 5901 5902 5902 5901 5900 5901 5903 5903 5903 5903
5881 5880 5881 5883 5883 5884 5884 5884 5884 5884 5883 5883 5883 5882 5884 5886 5886 5887 5888 5887 5887 5888 5888 5889 5889 5890 5891 5893 5895 5896 5898 5899 5899 5900 5900 5900 5900 5900 5901 5902 5902 5902 5903 5903 5904 5904 5904 5905 5905 5905 5905 5905 5904 5904 5904 5903 5903 5902 5902 5901 5901 5900 5900 5900 5899 5899 5899 5899 5899 5899 5897 5897 5897 5897 5898 5899 5899 5899 5899 5899 5900 5901 5901 5901 5901
5882 5881 5882 5883 5883 5884 5884 5885 5885 5885 5884 5884 5884 5885 5886 5887 5888 5889 5889 5889 5890 5890 5891 5891 5891 5892 5893 5894 5896 5898 5899 5900 5900 5900 5900 5900 5900 5901 5902 5902 5903 5903 5903 5903 5904 5904 5905 5905 5905 5904 5904 5905 5904 5904 5904 5903 5903 5902 5902 5901 5901 5900 5900 5900 5899 5899 5898 5898 5898 5898 5897 5896 5896 5897 5897 5897 5897 5897 5897 5897 5898 5899 5900 5900 5900
5883 5883 5882 5883 5883 5884 5884 5885 5886 5886 5885 5885 5886 5886 5887 5888 5889 5890 5891 5891 5892 5892 5893 5893 5894 5894 5895 5896 5897 5899 5900 5901 5901 5900 5900 5900 5900 5901 5902 5902 5903 5903 5903 5903 5904 5904 5905 5905 5904 5904 5904 5904 5904 5904 5903 5903 5902 5902 5901 5901 5901 5900 5900 5899 5899 5898 5898 5897 5897 5897 5897 5896 5896 5896 5896 5896 5896 5896 5895 5896 5896 5897 5897 5898 5898
5884 5883 5883 5883 5882 5883 5884 5885 5886 5887 5887 5886 5886 5886 5887 5888 5889 5890 5891 5892 5893 5893 5894 5894 5894 5895 5896 5897 5898 5900 5901 5901 5900 5899 5900 5900 5901 5901 5902 5902 5903 5903 5903 5903 5904 5904 5904 5904 5904 5904 5903 5903 5903 5903 5902 5902 5901 5901 5901 5900 5900 5900 5899 5899 5898 5898 5897 5897 5896 5896 5896 5896 5896 5896 5895 5895 5894 5894 5894 5894 5894 5895 5895 5895 5895
5884 5883 5882 5882 5880 5881 5883 5885 5886 5887 5887 5887 5887 5886 5887 5888 5889 5889 5890 5891 5893 5894 5894 5895 5895 5896 5897 5898 5899 5900 5900 5899 5899 5899 5900 5900 5901 5902 5902 5902 5902 5902 5903 5903 5904 5904 5904 5903 5903 5903 5902 5902 5902 5901 5901 5901 5900 5900 5899 5899 5898 5898 5898 5898 5897 5897 5896 5896 5895 5895 5895 5894 5894 5895 5895 5894 5894 5893 5893 5894 5893 5893 5893 5892 5893
5884 5883 5882 5881 5880 5879 5882 5885 5887 5888 5888 5888 5888 5888 5888 5888 5888 5889 5889 5890 5892 5893 5894 5895 5895 5896 5897 5898 5899 5899 5898 5898 5899 5899 5900 5901 5901 5901 5902 5902 5902 5902 5902 5902 5903 5903 5903 5902 5902 5902 5901 5901 5900 5900 5900 5900 5899 5899 5898 5898 5897 5897 5896 5896 5896 5895 5895 5894 5894 5894 5893 5893 5892 5893 5893 5893 5893 5893 5893 5893 5893 5892 5892 5891 5891
5884 5884 5883 5883 5883 5882 5883 5885 5887 5888 5889 5889 5889 5889 5889 5888 5888 5889 5889 5890 5891 5893 5894 5895 5896 5896 5897 5897 5898 5898 5898 5898 5899 5899 5900 5901 5901 5901 5901 5901 5901 5901 5901 5901 5902 5902 5901 5901 5901 5901 5900 5900 5899 5899 5899 5898 5898 5898 5897 5897 5896 5895 5895 5895 5894 5894 5893 5893 5892 5892 5891 5891 5891 5890 5890 5890 5891 5891 5891 5892 5891 5891 5890 5890 5889
5883 5883 5884 5885 5885 5884 5884 5886 5887 5888 5889 5890 5890 5890 5890 5889 5889 5889 5890 5891 5891 5892 5893 5894 5895 5895 5896 5896 5897 5897 5897 5898 5899 5899 5900 5900 5900 5900 5900 5900 5900 5900 5900 5900 5900 5900 5900 5900 5900 5900 5899 5899 5898 5898 5898 5897 5897 5896 5896 5895 5895 5894 5894 5893 5892 5892 5891 5891 5890 5890 5889 5889 5888 5888 5888 5888 5888 5888 5888 5889 5889 5889 5888 5888 5888
5883 5883 5884 5885 5885 5885 5885 5886 5887 5888 5889 5890 5890 5890 5890 5890 5890 5890 5890 5891 5891 5892 5892 5893 5894 5894 5895 5895 5896 5896 5897 5898 5898 5898 5899 5899 5899 5899 5899 5899 5899 5899 5899 5899 5899 5899 5899 5899 5899 5898 5898 5897 5897 5897 5896 5896 5895 5894 5894 5893 5893 5892 5892 5891 5890 5890 5889 5888 5888 5887 5887 5886 5886 5886 5885 5885 5885 5885 5885 5886 5886 5886 5886 5886 5886
5883 5883 5884 5885 5885 5885 5885 5886 5887 5888 5888 5889 5890 5890 5890 5890 5890 5890 5890 5890 5891 5891 5892 5892 5893 5893 5894 5894 5895 5895 5896 5896 5897 5897 5898 5898 5898 5898 5898 5898 5898 5898 5898 5898 5898 5898 5897 5897 5897 5897 5896 5896 5895 5895 5894 5894 5893 5892 5892 5891 5890 5890 5889 5889 5888 5887 5887 5886 5885 5884 5884 5883 5883 5883 5883 5883 5883 5882 5882 5882 5882 5883 5883 5883 5883
5881 5882 5883 5884 5884 5884 5884 5885 5886 5887 5888 5888 5889 5890 5890 5890 5890 5890 5890 5890 5890 5891 5891 5891 5892 5892 5893 5893 5894 5894 5895 5895 5895 5896 5896 5896 5896 5896 5896 5897 5897 5897 5897 5896 5896 5896 5896 5896 5895 5895 5895 5894 5893 5893 5892 5892 5891 5890 5889 5888 5888 5887 5887 5886 5885 5884 5884 5883 5882 5882 5881 5881 5880 5880 5879 5879 5880 5879 5879 5879 5879 5879 5879 5880 5880
5878 5880 5881 5882 5882 5883 5883 5884 5885 5886 5887 5887 5888 5889 5889 5889 5889 5889 5889 5890 5890 5890 5890 5890 5891 5891 5891 5892 5892 5893 5893 5893 5894 5894 5894 5895 5895 5895 5895 5895 5895 5895 5895 5895 5894 5894 5894 5894 5893 5893 5892 5891 5891 5890 5889 5888 5888 5887 5886 5885 5884 5884 5883 5882 5881 5881 5880 5880 5879 5879 5878 5878 5877 5877 5876 5875 5875 5875 5875 5875 5875 5875 5875 5876 5875
5878 5879 5880 5880 5881 5881 5882 5883 5884 5885 5886 5887 5887 5888 5888 5888 5888 5888 5888 5889 5889 5889 5889 5890 5890 5890 5890 5891 5891 5891 5892 5892 5892 5892 5892 5893 5893 5893 5893 5893 5893 5893 5892 5892 5892 5891 5891 5891 5890 5889 5889 5888 5888 5887 5886 5885 5884 5883 5882 5881 5881 5880 5879 5878 5878 5877 5876 5876 5875 5875 5874 5874 5873 5873 5873 5872 5871 5871 5871 5871 5871 5871 5871 5871 5871
5879 5879 5879 5879 5879 5880 5881 5882 5883 5884 5885 5886 5887 5887 5888 5888 5888 5887 5887 5888 5888 5888 5888 5889 5889 5889 5889 5889 5890 5890 5890 5890 5890 5890 5891 5891 5891 5891 5890 5890 5890 5890 5889 5889 5888 5888 5888 5887 5886 5886 5885 5885 5884 5883 5882 5882 5881 5880 5879 5878 5877 5876 5875 5875 5874 5873 5872 5871 5871 5871 5870 5869 5869 5868 5868 5868 5868 5867 5866 5866 5866 5866 5866 5866 5867
5879 5879 5880 5880 5879 5878 5880 5881 5882 5883 5884 5885 5886 5886 5887 5887 5887 5887 5887 5887 5887 5887 5888 5888 5888 5888 5888 5888 5888 5888 5888 5888 5888 5888 5888 5888 5888 5888 5888 5887 5887 5887 5886 5886 5885 5884 5884 5883 5883 5882 5881 5881 5880 5879 5878 5877 5876 5875 5874 5873 5873 5872 5871 5870 5870 5869 5868 5867 5867 5866 5866 5865 5864 5864 5863 5863 5863 5862 5862 5861 5861 5860 5860 5861 5861
5878 5880 5881 5881 5879 5878 5879 5880 5881 5882 5883 5884 5885 5885 5885 5885 5886 5886 5885 5886 5886 5886 5886 5887 5887 5887 5887 5887 5887 5887 5886 5886 5886 5886 5886 5885 5885 5885 5884 5884 5883 5883 5882 5882 5881 5880 5880 5879 5878 5878 5877 5876 5875 5874 5873 5872 5871 5871 5870 5869 5868 5867 5866 5866 5865 5864 5863 5863 5862 5862 5861 5860 5859 5859 5858 5858 5857 5857 5857 5856 5856 5856 5855 5855 5855
5878 5879 5880 5879 5879 5878 5879 5879 5881 5881 5882 5883 5883 5883 5884 5884 5884 5884 5884 5884 5885 5885 5885 5885 5885 5885 5885 5885 5884 5884 5884 5884 5883 5883 5882 5882 5882 5881 5881 5880 5880 5879 5878 5878 5877 5876 5875 5875 5874 5873 5872 5871 5870 5869 5868 5867 5866 5865 5865 5864 5863 5862 5861 5861 5860 5859 5858 5858 5857 5857 5856 5855 5854 5853 5853 5852 5852 5851 5851 5850 5850 5850 5850 5850 5850
5878 5878 5878 5879 5879 5879 5879 5879 5880 5880 5881 5881 5881 5881 5882 5882 5882 5882 5882 5883 5883 5883 5883 5883 5883 5883 5882 5882 5882 5881 5881 5881 5880 5880 5879 5879 5878 5878 5877 5877 5876 5875 5875 5874 5873 5872 5871 5870 5869 5868 5867 5866 5865 5864 5863 5862 5861 5860 5859 5858 5857 5857 5856 5855 5855 5854 5853 5852 5851 5851 5850 5849 5848 5848 5847 5846 5845 5845 5844 5844 5844 5844 5844 5844 5844
5877 5877 5878 5878 5878 5878 5878 5879 5879 5879 5879 5880 5880 5880 5880 5880 5880 5880 5880 5881 5881 5881 5881 5881 5881 5880 5880 5880 5879 5879 5879 5878 5878 5877 5876 5876 5875 5874 5874 5873 5872 5871 5870 5870 5869 5868 5867 5865 5864 5863 5862 5861 5860 5859 5858 5857 5856 5855 5854 5853 5853 5852 5851 5850 5849 5848 5848 5847 5846 5845 5844 5843 5842 5841 5841 5840 5839 5839 5838 5838 5838 5838 5838 5838 5838
5875 5875 5876 5876 5876 5877 5877 5877 5877 5878 5878 5878 5878 5878 5878 5878 5878 5878 5878 5878 5878 5878 5878 5878 5878 5878 5878 5877 5877 5876 5876 5875 5875 5874 5873 5872 5872 5871 5870 5869 5868 5867 5866 5865 5864 5863 5862 5861 5860 5859 5858 5856 5855 5854 5853 5852 5851 5850 5849 5848 5848 5847 5846 5845 5844 5842 5841 5840 5839 5839 5837 5836 5835 5835 5834 5833 5833 5832 5832 5832 5832 5831 5831 5832 5832
5873 5873 5873 5873 5874 5875 5876 5876 5876 5876 5876 5876 5876 5876 5876 5876 5876 5876 5876 5876 5876 5876 5875 5875 5875 5875 5874 5874 5874 5873 5873 5872 5871 5870 5869 5868 5868 5867 5866 5865 5864 5863 5862 5860 5859 5858 5857 5856 5855 5854 5853 5852 5851 5850 5848 5847 5846 5845 5845 5844 5843 5841 5840 5839 5838 5837 5835 5834 5833 5832 5831 5830 5829 5828 5828 5827 5827 5826 5826 5825 5825 5825 5825 5825 5826
5872 5872 5872 5872 5873 5874 5874 5874 5875 5875 5875 5875 5875 5874 5874 5874 5874 5874 5874 5873 5873 5873 5872 5872 5871 5871 5871 5871 5870 5870 5869 5868 5868 5867 5866 5865 5864 5863 5862 5861 5860 5858 5857 5856 5855 5854 5853 5852 5851 5850 5849 5848 5847 5845 5844 5843 5842 5840 5839 5838 5837 5836 5834 5833 5832 5831 5830 5828 5827 5826 5825 5825 5823 5823 5822 5821 5820 5820 5819 5819 5819 5818 5819 5819 5819
5872 5872 5872 5872 5873 5873 5873 5873 5873 5873 5873 5873 5873 5873 5872 5872 5872 5871 5871 5871 5870 5870 5869 5868 5868 5868 5868 5867 5867 5866 5865 5865 5864 5863 5862 5861 5860 5859 5858 5857 5855 5854 5853 5852 5851 5849 5849 5847 5846 5845 5844 5843 5842 5840 5839 5838 5836 5835 5833 5832 5831 5830 5829 5827 5826 5825 5824 5823 5822 5821 5820 5819 5818 5817 5816 5815 5814 5814 5813 5813 5813 5812 5812 5812 5813
5872 5872 5871 5871 5872 5872 5871 5871 5871 5871 5872 5871 5871 5871 5871 5871 5870 5869 5869 5868 5868 5867 5866 5866 5865 5865 5865 5864 5863 5863 5862 5861 5860 5859 5858 5857 5856 5855 5854 5852 5851 5850 5848 5847 5846 5845 5844 5843 5842 5841 5839 5838 5837 5835 5834 5832 5831 5829 5828 5826 5825 5824 5823 5821 5820 5819 5818 5817 5816 5815 5814 5813 5812 5811 5810 5809 5809 5808 5807 5807 5807 5806 5806 5806 5806
5870 5870 5870 5870 5870 5870 5870 5870 5870 5870 5870 5870 5870 5870 5870 5869 5868 5867 5867 5866 5866 5865 5864 5863 5862 5862 5861 5860 5860 5859 5858 5857 5856 5855 5854 5853 5852 5851 5849 5848 5846 5845 5844 5843 5842 5841 5840 5838 5837 5836 5834 5833 5831 5829 5828 5826 5825 5823 5822 5820 5819 5818 5817 5815 5814 5812 5812 5811 5810 5809 5807 5806 5806 5805 5804 5803 5802 5802 5801 5801 5800 5800 5800 5800 5800
5868 5868 5868 5868 5869 5869 5868 5868 5869 5869 5869 5869 5869 5868 5868 5867 5866 5865 5865 5864 5863 5862 5861 5860 5859 5858 5858 5857 5856 5855 5854 5853 5852 5851 5850 5849 5848 5846 5845 5844 5842 5841 5840 5839 5837 5836 5835 5833 5832 5830 5829 5827 5826 5824 5822 5821 5819 5818 5816 5814 5813 5812 5811 5809 5807 5806 5805 5804 5803 5802 5801 5800 5799 5798 5797 5796 5795 5795 5794 5794 5794 5793 5793 5793 5793
5867 5867 5868 5868 5868 5867 5867 5867 5867 5867 5867 5867 5866 5865 5865 5864 5863 5862 5861 5861 5860 5859 5857 5856 5856 5855 5854 5853 5853 5851 5850 5849 5848 5847 5846 5845 5843 5842 5841 5839 5838 5837 5835 5834 5833 5831 5830 5828 5827 5825 5824 5822 5820 5818 5816 5814 5813 5811 5809 5808 5806 5805 5804 5803 5801 5799 5798 5796 5796 5795 5794 5793 5791 5790 5789 5788 5788 5787 5787 5787 5787 5787 5787 5786 5786
5867 5867 5867 5867 5867 5865 5864 5864 5864 5865 5864 5864 5863 5862 5861 5860 5859 5858 5858 5857 5857 5856 5854 5853 5853 5852 5850 5850 5849 5848 5847 5845 5844 5843 5842 5840 5839 5838 5837 5835 5834 5832 5831 5829 5828 5827 5825 5823 5821 5820 5818 5816 5814 5811 5809 5808 5806 5805 5803 5801 5799 5798 5797 5796 5794 5792 5790 5789 5788 5787 5786 5785 5784 5783 5781 5780 5780 5780 5780 5780 5780 5779 5779 5779 5779
5865 5865 5865 5864 5863 5862 5861 5861 5861 5862 5861 5860 5858 5857 5856 5855 5855 5855 5855 5854 5853 5852 5851 5850 5849 5848 5847 5846 5845 5844 5843 5841 5840 5839 5838 5836 5835 5834 5832 5831 5830 5828 5826 5825 5823 5822 5820 5818 5816 5814 5812 5810 5807 5805 5803 5802 5800 5798 5796 5794 5792 5791 5790 5789 5787 5785 5783 5782 5780 5779 5778 5777 5776 5775 5773 5772 5772 5772 5772 5772 5771 5771 5771 5771 5771
5861 5862 5861 5860 5860 5860 5860 5860 5860 5860 5858 5856 5855 5854 5854 5854 5854 5853 5852 5850 5849 5848 5847 5846 5845 5843 5842 5842 5841 5840 5839 5837 5836 5835 5834 5832 5831 5830 5828 5827 5825 5823 5822 5820 5818 5816 5814 5812 5810 5807 5805 5803 5801 5799 5797 5795 5794 5792 5789 5787 5785 5784 5782 5781 5779 5777 5775 5774 5772 5770 5769 5768 5767 5766 5765 5765 5764 5764 5764 5763 5763 5762 5763 5763 5763
5858 5859 5859 5858 5858 5859 5859 5860 5859 5858 5857 5855 5853 5853 5853 5852 5851 5850 5848 5846 5845 5843 5842 5841 5840 5839 5838 5837 5836 5835 5835 5834 5832 5831 5830 5828 5827 5825 5824 5822 5821 5819 5817 5815 5813 5811 5808 5806 5803 5801 5799 5797 5795 5792 5790 5788 5787 5784 5782 5779 5777 5776 5775 5773 5771 5769 5768 5766 5764 5762 5760 5759 5759 5758 5757 5757 5756 5756 5755 5754 5754 5754 5754 5755 5755
5857 5858 5857 5856 5857 5858 5859 5859 5858 5856 5854 5850 5849 5850 5850 5848 5847 5846 5845 5843 5841 5839 5838 5837 5836 5835 5834 5833 5832 5832 5831 5830 5829 5827 5826 5824 5823 5821 5819 5818 5816 5814 5812 5810 5808 5805 5803 5800 5798 5795 5793 5791 5788 5786 5783 5782 5780 5777 5775 5772 5770 5768 5766 5765 5763 5762 5760 5758 5756 5754 5752 5751 5751 5750 5749 5748 5748 5747 5746 5746 5745 5745 5746 5746 5746
5856 5856 5854 5854 5855 5856 5855 5853 5851 5849 5847 5845 5845 5845 5845 5843 5842 5842 5840 5839 5837 5835 5834 5833 5832 5831 5830 5829 5829 5829 5828 5827 5825 5823 5822 5820 5818 5817 5815 5813 5811 5809 5807 5805 5802 5800 5798 5795 5792 5790 5787 5784 5782 5780 5777 5775 5773 5771 5768 5765 5763 5760 5758 5756 5755 5753 5751 5750 5748 5746 5744 5743 5742 5741 5741 5740 5739 5738 5738 5738 5737 5737 5737 5737 5737
5854 5853 5852 5851 5850 5849 5847 5845 5844 5843 5843 5843 5843 5842 5841 5840 5838 5837 5836 5834 5833 5832 5831 5830 5829 5828 5827 5827 5826 5825 5824 5822 5821 5819 5817 5816 5814 5812 5811 5809 5807 5804 5802 5800 5797 5795 5793 5790 5787 5784 5781 5779 5776 5774 5771 5769 5766 5764 5762 5759 5756 5753 5750 5748 5746 5745 5743 5741 5739 5737 5735 5734 5734 5733 5732 5731 5731 5730 5730 5730 5730 5729 5729 5728 5729
5850 5849 5848 5848 5847 5846 5845 5844 5844 5844 5844 5843 5842 5840 5839 5838 5836 5835 5833 5831 5830 5829 5828 5827 5826 5826 5825 5824 5823 5821 5820 5818 5817 5815 5813 5812 5810 5808 5806 5804 5802 5800 5797 5795 5792 5790 5787 5784 5781 5778 5776 5773 5771 5768 5765 5762 5760 5758 5755 5753 5750 5747 5743 5741 5739 5737 5735 5733 5731 5730 5728 5726 5726 5725 5724 5723 5723 5722 5722 5722 5721 5721 5721 5720 5720
5847 5846 5846 5846 5847 5847 5847 5846 5844 5843 5842 5841 5839 5838 5836 5835 5834 5833 5831 5829 5827 5826 5825 5824 5824 5823 5822 5820 5819 5817 5816 5814 5813 5811 5810 5808 5806 5804 5802 5800 5797 5795 5792 5790 5787 5785 5782 5779 5776 5773 5770 5767 5764 5762 5759 5756 5753 5751 5749 5746 5743 5740 5737 5734 5731 5729 5727 5725 5724 5722 5721 5719 5718 5717 5717 5716 5715 5715 5714 5714 5714 5713 5713 5713 5713
5847 5846 5846 5847 5848 5848 5845 5842 5839 5838 5838 5836 5835 5834 5832 5831 5831 5829 5828 5826 5825 5824 5823 5822 5820 5819 5818 5817 5815 5814 5812 5811 5810 5808 5806 5804 5802 5800 5797 5795 5793 5790 5788 5785 5783 5780 5778 5775 5772 5769 5765 5762 5758 5755 5752 5749 5747 5745 5742 5739 5736 5733 5730 5727 5724 5722 5720 5718 5716 5715 5713 5712 5711 5710 5709 5709 5708 5708 5707 5707 5707 5706 5705 5705 5706
5846 5846 5846 5846 5845 5841 5837 5835 5835 5835 5834 5833 5832 5830 5829 5828 5827 5826 5825 5825 5823 5822 5821 5820 5818 5817 5816 5814 5812 5811 5809 5808 5806 5805 5803 5801 5798 5796 5794 5791 5789 5786 5784 5781 5778 5776 5773 5770 5767 5764 5761 5757 5753 5750 5746 5743 5740 5737 5734 5731 5728 5725 5722 5720 5717 5715 5713 5711 5709 5707 5706 5705 5704 5703 5702 5702 5701 5701 5700 5700 5700 5699 5698 5698 5698
5843 5843 5843 5841 5838 5833 5831 5832 5833 5832 5831 5831 5830 5829 5828 5827 5826 5825 5824 5823 5822 5820 5819 5818 5816 5815 5813 5812 5810 5808 5806 5805 5803 5801 5799 5797 5795 5792 5790 5787 5785 5782 5779 5776 5774 5771 5768 5765 5762 5759 5756 5752 5748 5744 5741 5737 5734 5731 5727 5724 5721 5717 5714 5712 5710 5708 5706 5704 5702 5700 5698 5697 5696 5695 5694 5694 5694 5694 5694 5693 5693 5692 5692 5692 5691
5837 5836 5836 5835 5833 5831 5831 5832 5831 5830 5830 5829 5828 5828 5827 5826 5825 5824 5822 5821 5820 5818 5817 5815 5814 5812 5811 5809 5807 5805 5803 5801 5799 5797 5795 5793 5790 5788 5785 5783 5780 5777 5774 5771 5769 5766 5763 5760 5757 5754 5751 5747 5744 5740 5736 5732 5728 5725 5721 5717 5713 5710 5707 5704 5702 5701 5699 5698 5696 5694 5691 5689 5688 5687 5686 5686 5686 5687 5687 5687 5686 5686 5685 5686 5685
5832 5832 5832 5832 5832 5832 5831 5831 5830 5830 5829 5828 5828 5827 5826 5825 5824 5822 5821 5819 5817 5816 5814 5812 5811 5810 5808 5806 5805 5803 5801 5798 5796 5794 5791 5789 5787 5784 5781 5778 5776 5773 5770 5767 5764 5761 5758 5755 5752 5748 5745 5742 5739 5735 5731 5726 5722 5718 5714 5710 5707 5704 5701 5698 5696 5694 5693 5692 5690 5687 5685 5683 5682 5681 5680 5679 5679 5679 5680 5680 5680 5679 5679 5680 5680
5832 5832 5832 5832 5832 5832 5831 5831 5830 5829 5828 5827 5826 5825 5824 5823 5821 5820 5818 5816 5814 5813 5811 5810 5808 5807 5805 5803 5802 5800 5798 5795 5793 5790 5788 5785 5783 5780 5777 5774 5771 5768 5765 5762 5759 5756 5752 5749 5746 5742 5738 5735 5732 5729 5725 5720 5716 5712 5708 5704 5701 5698 5696 5694 5691 5689 5688 5686 5684 5681 5680 5678 5676 5675 5675 5674 5673 5673 5674 5674 5674 5674 5674 5675 5675
5832 5832 5832 5832 5832 5831 5830 5829 5828 5828 5827 5826 5824 5823 5822 5820 5818 5816 5815 5813 5811 5810 5808 5807 5805 5804 5802 5800 5798 5796 5794 5792 5789 5787 5784 5781 5778 5776 5773 5770 5767 5764 5761 5758 5754 5751 5748 5744 5741 5737 5733 5729 5725 5722 5718 5714 5710 5706 5703 5699 5696 5693 5691 5689 5687 5685 5683 5680 5678 5676 5674 5672 5671 5670 5670 5669 5669 5669 5669 5669 5669 5669 5669 5669 5669
5832 5832 5831 5831 5831 5830 5829 5828 5826 5825 5824 5823 5822 5820 5818 5817 5815 5813 5812 5810 5808 5807 5805 5804 5802 5800 5798 5796 5794 5792 5790 5788 5786 5783 5780 5778 5775 5772 5769 5767 5764 5761 5757 5754 5751 5747 5744 5740 5737 5733 5730 5725 5720 5716 5712 5708 5705 5701 5698 5695 5692 5689 5686 5684 5682 5680 5678 5675 5672 5671 5669 5667 5667 5666 5666 5665 5665 5664 5664 5664 5664 5664 5664 5664 5664